Weather History for Columbus, OH

Change the Weather History Date:

Sunday, March 10, 2013

  Actual Average Record
Temperature  
Mean Temperature 59 °F 40 °F  
Max Temperature 70 °F 49 °F 79 °F (2009)
Min Temperature 48 °F 31 °F 2 °F (1984)
Degree Days  
Heating Degree Days 6 25  
Month to date heating degree days 280 268  
Since 1 July heating degree days 4138 4263  
Cooling Degree Days 0 0  
Month to date cooling degree days 0 0  
Year to date cooling degree days 0 0  
Growing Degree Days 9 (Base 50)    
Moisture  
Dew Point 33 °F    
Average Humidity 44    
Maximum Humidity 61    
Minimum Humidity 26    
Precipitation  
Precipitation 0.02 in 0.09 in 1.70 in (1952)
Month to date precipitation 0.85 0.85  
Year to date precipitation 4.92 5.83  
Snow  
Snow 0.00 in 0.10 in 2.50 in (1971)
Month to date snowfall 7.9 1.8  
Since 1 July snowfall 36.9 23.2  
Snow Depth 0.00 in    
Sea Level Pressure  
Sea Level Pressure 29.99 in    
Wind  
Wind Speed 10 mph (SSE)    
Max Wind Speed 22 mph    
Max Gust Speed 29 mph    
Visibility 10 miles    
Events      
T = Trace of Precipitation, MM = Missing Value Source: NWS Daily Summary

Daily Weather History Graph

Daily Weather History Graph

Search for Another Location

Airport:

Trip Planner

Search our weather history database for the weather conditions in past years. The results will help you decide how hot, cold, wet, or windy it might be!

Date:

Astronomy

Mar. 10, 2013 Rise Set
Actual Time 7:50 AM EDT 7:33 PM EDT
Civil Twilight 7:23 AM EDT 8:00 PM EDT
Nautical Twilight 6:52 AM EDT 8:31 PM EDT
Astronomical Twilight 6:20 AM EDT 9:03 PM EDT
Moon 6:49 AM EDT (3/10) 6:40 PM EDT (3/10)
Length of Visible Light 12h 36m
Length of Day
11h 42m
Waning Crescent, 2% of the Moon is Illuminated
Mar 10
Waning Crescent
Mar 11
New
Mar 19
First Quarter
Mar 27
Full
Apr 3
Last Quarter

Hourly Weather History & Observations

Time (EDT) Temp. Dew Point Humidity Pressure Visibility Wind Dir Wind Speed Gust Speed Precip Events Conditions
12:51 AM 51.8 °F 26.6 °F 38% 30.05 in 10.0 mi SE 11.5 mph - N/A   Mostly Cloudy
1:51 AM 50.0 °F 28.0 °F 43% 30.05 in 10.0 mi SE 9.2 mph - N/A   Clear
3:51 AM 51.1 °F 28.0 °F 41% 30.03 in 10.0 mi SE 8.1 mph - N/A   Overcast
4:51 AM 51.1 °F 28.9 °F 43% 30.01 in 10.0 mi SE 10.4 mph - 0.00 in   Overcast
5:51 AM 48.9 °F 36.0 °F 61% 30.03 in 10.0 mi SSE 4.6 mph - 0.02 in   Mostly Cloudy
6:51 AM 48.9 °F 34.0 °F 56% 30.05 in 10.0 mi ESE 3.5 mph - N/A   Mostly Cloudy
7:51 AM 48.2 °F 33.8 °F 58% 30.06 in 10.0 mi SE 6.9 mph - N/A   Overcast
8:51 AM 50.0 °F 34.0 °F 54% 30.08 in 10.0 mi SE 8.1 mph - N/A   Overcast
9:51 AM 53.1 °F 34.0 °F 48% 30.09 in 10.0 mi SE 9.2 mph - N/A   Overcast
10:51 AM 57.9 °F 34.0 °F 41% 30.06 in 10.0 mi SSE 11.5 mph - N/A   Mostly Cloudy
11:51 AM 63.0 °F 34.0 °F 34% 30.05 in 10.0 mi SSW 13.8 mph 28.8 mph N/A   Mostly Cloudy
12:51 PM 64.0 °F 33.1 °F 31% 30.04 in 10.0 mi South 19.6 mph 25.3 mph N/A   Mostly Cloudy
1:51 PM 64.9 °F 35.1 °F 33% 30.03 in 10.0 mi SSW 16.1 mph 23.0 mph N/A   Overcast
2:51 PM 68.0 °F 35.1 °F 30% 29.98 in 10.0 mi SSW 12.7 mph 21.9 mph N/A   Overcast
3:51 PM 69.1 °F 34.0 °F 27% 29.97 in 10.0 mi South 11.5 mph - N/A   Mostly Cloudy
4:51 PM 68.0 °F 33.1 °F 27% 29.95 in 10.0 mi SSE 12.7 mph 16.1 mph N/A   Mostly Cloudy
5:51 PM 68.0 °F 32.0 °F 26% 29.94 in 10.0 mi SSE 10.4 mph - N/A   Mostly Cloudy
6:51 PM 66.9 °F 34.0 °F 30% 29.91 in 10.0 mi SSE 8.1 mph - N/A   Overcast
7:51 PM 63.0 °F 33.1 °F 33% 29.90 in 10.0 mi SE 6.9 mph - N/A   Overcast
8:51 PM 60.8 °F 33.8 °F 36% 29.89 in 10.0 mi ESE 8.1 mph - N/A   Overcast
9:51 PM 61.0 °F 33.1 °F 35% 29.88 in 10.0 mi SE 8.1 mph - N/A   Overcast
10:51 PM 64.0 °F 30.9 °F 29% 29.86 in 10.0 mi SE 11.5 mph - N/A   Overcast
11:51 PM 62.1 °F 34.0 °F 35% 29.87 in 10.0 mi SSE 8.1 mph - N/A   Overcast
12:51 AM 61.0 °F 36.0 °F 39% 29.87 in 10.0 mi South 8.1 mph - N/A   Overcast